Wind_Speed
43 42 41 40 40 39 39 39 39 38 32 26 21 20 19 17 17 17 15 16 18 18 18 14 13 18 22 31 35 34 31 27 24 15 14 11 16 15 14 20 25 21 15 5
44 43 41 41 40 41 41 39 35 28 22 18 18 17 18 18 18 19 18 17 17 17 16 16 14 13 20 25 31 32 30 29 27 22 15 16 17 13 8 12 16 17 12 9
46 44 42 40 38 37 34 25 19 16 15 14 14 15 16 16 16 17 17 18 17 17 17 15 13 13 16 22 26 32 32 32 25 23 21 19 16 14 11 11 14 14 11 10
39 36 32 29 27 23 19 16 14 13 13 11 12 14 14 16 15 17 18 17 18 18 17 19 18 14 12 19 22 30 35 34 31 26 23 22 18 17 16 14 16 13 9 9
27 23 20 19 18 17 16 13 13 13 13 13 13 12 18 16 18 18 20 20 20 20 20 17 18 20 16 14 21 23 30 38 38 32 27 24 22 22 18 18 18 15 13 12
19 19 21 19 17 15 13 12 11 12 14 15 18 14 12 18 20 21 21 23 22 24 23 22 19 18 20 17 17 23 24 35 35 36 33 28 26 24 22 22 22 19 16 13
23 24 21 18 15 13 12 11 12 15 18 20 21 24 18 22 22 21 24 25 24 25 25 23 22 20 19 20 20 20 24 27 39 38 34 31 28 27 29 26 27 20 17 13
25 23 20 18 15 14 13 14 15 17 21 24 26 28 29 28 27 28 25 26 28 26 26 26 24 22 21 21 21 22 24 28 31 43 40 37 35 31 32 30 30 24 22 15
26 22 20 18 16 16 17 18 21 22 25 27 30 34 37 28 36 31 27 29 30 30 27 28 29 26 23 22 23 22 25 27 31 36 43 45 41 36 33 32 34 29 30 25
24 22 21 20 19 20 22 24 26 27 29 32 35 37 41 44 41 38 31 32 36 33 33 30 31 32 29 26 23 23 24 26 30 36 42 48 46 41 36 34 34 34 31 28
26 24 22 22 23 26 26 31 33 34 36 38 41 48 42 40 41 40 42 40 39 36 37 38 35 31 35 32 28 26 25 26 28 33 40 46 52 49 44 37 36 38 36 31
28 27 27 28 30 31 32 35 38 38 42 42 45 49 50 39 33 50 46 45 47 45 41 38 35 33 31 34 33 31 30 28 28 30 35 44 48 54 53 49 41 41 42 37
32 31 33 35 37 35 36 41 45 46 47 47 47 55 57 53 48 52 47 48 47 44 39 38 36 36 34 34 35 35 33 32 31 31 32 36 46 49 55 54 50 44 43 44
36 36 37 40 43 42 43 46 48 50 50 49 51 53 64 59 55 55 45 40 49 51 51 43 44 43 41 40 39 39 38 37 34 33 33 35 37 46 51 54 52 48 47 45
40 42 42 46 48 50 51 52 52 54 55 56 57 59 65 64 56 51 44 43 57 62 58 55 51 51 48 47 46 45 44 42 41 37 36 36 37 38 46 50 52 51 50 49
41 43 44 47 49 51 54 57 55 58 60 60 62 64 58 58 62 62 59 55 52 58 63 61 60 62 62 57 54 52 49 47 46 45 41 39 37 38 38 45 51 54 55 52
41 43 46 50 54 55 58 56 59 60 63 61 58 57 59 63 65 65 67 66 63 64 69 70 67 63 63 62 57 56 54 54 50 49 48 43 39 36 37 33 42 50 53 56
45 49 51 54 58 60 61 57 53 54 61 61 59 63 63 65 69 71 79 77 74 74 75 75 73 68 66 65 61 58 52 53 54 51 50 48 42 37 33 33 35 42 47 54
50 54 56 59 60 58 56 47 52 56 63 62 63 68 70 72 74 78 83 83 77 75 80 80 77 75 72 70 68 66 61 55 54 52 52 51 39 35 32 25 35 43 44 47
56 55 55 51 51 55 57 53 59 68 70 66 68 70 75 78 82 83 82 80 81 78 82 81 80 79 75 71 68 65 63 55 53 56 54 50 42 34 36 30 60 50 53 45
51 50 49 52 55 60 56 60 64 67 68 72 75 78 81 83 83 83 83 80 74 71 74 72 73 72 72 73 71 69 67 62 52 55 57 51 51 44 27 39 40 51 62 55
50 49 52 55 62 68 63 66 67 71 76 79 83 84 84 82 81 80 75 69 63 54 52 51 52 55 58 62 63 64 66 65 57 54 58 63 66 49 35 45 27 44 65 62
51 53 59 64 66 66 68 70 73 76 80 81 86 85 84 80 74 68 62 51 46 42 40 39 38 41 42 47 52 56 58 59 56 55 67 76 71 62 50 39 53 47 74 66
57 58 60 63 67 70 74 77 78 77 81 83 88 84 77 67 60 53 46 41 39 36 35 33 33 36 37 40 41 45 50 53 54 56 76 86 84 77 67 62 55 50 49 49
59 61 61 64 67 71 77 80 81 81 85 82 77 72 61 53 45 37 33 28 24 22 24 24 24 28 31 34 37 41 46 48 49 59 81 93 90 90 87 67 50 44 40 38
59 60 63 69 75 77 78 80 84 82 79 71 63 55 44 35 29 26 23 24 26 29 31 31 31 32 35 37 39 43 44 45 47 53 78 99 100 98 90 76 63 51 40 44
Wind_Direction
247 250 254 259 266 272 277 283 288 289 289 286 284 288 295 298 302 307 313 321 324 326 330 320 279 261 246 225 219 228 232 230 232 222 234 244 241 248 244 235 229 245 257 248
249 253 258 264 270 275 280 282 284 280 276 279 287 295 303 311 315 314 314 316 321 321 324 330 316 269 258 239 230 228 226 225 225 225 240 235 233 239 231 212 224 231 221 236
251 256 261 267 271 272 274 272 262 262 269 281 291 303 308 316 320 316 318 318 314 311 313 313 318 300 264 248 244 231 225 225 223 230 237 236 226 219 213 200 193 203 227 251
255 258 259 256 257 256 250 249 250 258 267 276 287 301 312 316 314 314 318 318 316 313 310 305 306 302 287 263 250 239 232 230 226 223 237 238 231 216 212 198 198 213 236 181
244 242 233 230 231 231 238 245 253 262 272 280 286 305 311 310 315 317 315 314 314 311 307 301 299 295 292 276 259 253 239 232 231 233 228 230 236 217 205 212 206 199 196 188
217 206 211 212 214 225 240 251 261 272 277 286 288 292 303 304 311 315 313 310 311 309 307 306 292 285 282 278 265 256 252 233 229 228 227 232 230 224 209 219 215 196 193 198
194 200 205 210 214 223 239 259 272 286 297 292 299 302 307 305 306 308 307 309 307 302 300 298 298 290 280 275 272 261 250 240 228 226 223 232 233 224 214 216 215 210 206 211
196 200 205 214 222 236 253 271 282 292 296 297 300 303 306 306 305 306 304 304 301 298 299 296 294 290 283 272 265 266 258 246 236 225 224 225 235 232 222 218 217 215 222 226
199 206 212 226 237 253 267 279 287 291 295 300 301 303 298 302 303 303 302 300 296 298 295 299 295 290 283 273 266 258 259 255 244 230 225 224 229 233 228 223 220 220 230 230
205 216 225 238 251 262 272 280 288 292 298 301 301 300 303 306 304 303 295 295 299 294 292 291 292 289 282 276 263 260 256 255 251 241 229 223 227 226 229 227 225 222 229 227
216 226 239 251 262 271 277 290 293 296 299 300 299 296 295 291 302 295 306 301 295 291 288 290 287 280 280 277 271 262 255 252 250 247 241 231 225 228 230 230 230 224 225 228
229 235 247 254 263 271 280 285 288 293 293 294 295 293 289 295 273 289 297 296 294 292 289 285 281 276 269 270 270 266 265 259 251 248 244 239 233 229 231 236 233 230 226 227
239 245 254 261 267 271 280 286 287 289 291 293 296 292 291 292 290 290 297 299 294 289 281 280 277 274 269 265 265 265 260 258 257 247 245 242 237 236 234 237 237 231 232 231
249 254 261 269 275 277 280 280 282 287 289 290 290 288 290 291 293 297 298 300 287 286 284 277 276 274 271 267 262 261 262 258 253 252 244 242 240 238 238 236 235 233 232 235
257 263 267 274 277 280 280 283 288 290 290 291 290 289 286 295 293 287 286 278 274 280 279 283 280 275 269 266 262 258 257 257 255 249 248 242 240 239 237 238 239 235 233 234
265 268 271 275 279 283 287 288 291 290 291 289 287 288 294 292 291 289 286 278 272 274 280 282 280 279 275 269 266 261 256 253 253 250 244 243 240 238 237 238 239 241 237 235
269 272 276 279 282 283 284 289 290 292 288 289 290 290 291 288 285 287 285 283 286 283 283 281 279 275 272 269 263 257 254 252 249 247 245 239 239 238 238 244 242 241 242 240
275 278 280 282 284 285 286 289 291 288 285 288 292 292 288 288 291 291 288 290 287 286 282 279 276 272 269 269 265 257 252 250 247 242 242 238 234 234 238 244 250 249 247 243
280 282 283 284 286 286 287 292 290 281 284 290 288 286 288 289 291 289 290 289 287 283 279 279 276 272 271 268 263 261 258 250 243 239 235 234 231 227 231 249 261 258 252 249
283 283 285 285 285 287 291 294 288 287 289 289 285 287 290 292 292 290 288 287 285 281 277 274 272 269 267 264 259 255 256 249 237 236 229 225 210 206 207 196 254 259 257 253
282 285 285 287 288 287 291 291 289 289 290 290 291 292 292 292 291 290 290 288 285 281 277 274 269 265 261 258 256 253 250 246 231 227 220 208 197 199 201 194 221 254 255 257
280 286 287 287 286 288 290 290 288 289 289 291 293 294 293 293 294 293 291 289 286 281 278 275 269 263 259 256 253 250 247 243 235 217 210 198 203 188 191 197 203 258 244 252
281 283 288 287 288 290 291 290 290 291 294 297 297 296 296 297 296 294 291 287 283 279 276 272 269 264 258 254 250 246 243 240 234 210 199 198 201 196 176 189 184 206 238 244
283 287 288 290 290 293 294 294 295 296 298 298 298 298 297 297 294 290 287 283 280 278 276 272 267 264 263 258 252 248 244 238 227 211 199 202 199 199 194 197 198 212 225 234
286 288 287 288 291 293 294 296 297 300 301 298 297 296 296 295 291 289 285 281 274 272 269 267 266 266 262 261 257 252 245 241 228 210 200 205 206 204 202 202 194 209 222 220
287 289 291 294 296 298 299 300 301 301 299 297 296 294 293 289 285 279 281 288 289 290 287 282 272 266 265 263 261 257 251 243 232 213 204 202 206 206 206 208 207 205 211 204
Height
10954 10956 10959 10960 10960 10962 10962 10963 10962 10961 10959 10957 10956 10955 10954 10953 10950 10947 10945 10943 10941 10938 10937 10935 10934 10934 10935 10937 10939 10941 10945 10949 10951 10956 10959 10961 10964 10967 10970 10975 10979 10978 10982 10989
10947 10950 10953 10954 10955 10956 10956 10957 10957 10955 10954 10954 10953 10952 10951 10949 10947 10944 10942 10940 10938 10936 10935 10934 10932 10932 10932 10933 10935 10937 10941 10944 10946 10952 10955 10957 10960 10963 10966 10972 10974 10975 10980 10984
10941 10945 10947 10949 10949 10949 10950 10951 10952 10951 10951 10951 10950 10949 10947 10946 10944 10942 10940 10938 10937 10935 10933 10932 10931 10930 10930 10931 10931 10934 10937 10940 10944 10949 10953 10955 10957 10960 10963 10969 10973 10974 10978 10979
10936 10939 10941 10942 10943 10944 10945 10947 10948 10948 10948 10947 10947 10945 10945 10943 10943 10940 10938 10936 10935 10933 10932 10930 10928 10927 10927 10928 10929 10931 10933 10937 10941 10943 10948 10952 10954 10956 10960 10965 10972 10974 10977 10977
10930 10932 10934 10936 10939 10940 10941 10943 10944 10944 10943 10943 10944 10944 10940 10940 10939 10938 10936 10935 10933 10932 10930 10929 10927 10925 10924 10924 10925 10926 10928 10931 10936 10939 10943 10946 10949 10952 10955 10962 10967 10972 10975 10978
10925 10927 10930 10933 10936 10937 10938 10939 10940 10940 10939 10941 10938 10940 10939 10937 10936 10934 10932 10931 10930 10928 10926 10925 10925 10924 10922 10921 10920 10921 10922 10925 10929 10934 10938 10941 10945 10949 10953 10957 10961 10967 10972 10976
10920 10923 10927 10930 10932 10933 10935 10935 10937 10936 10935 10935 10933 10931 10935 10932 10932 10931 10928 10926 10925 10924 10922 10921 10920 10920 10918 10917 10917 10916 10917 10919 10923 10928 10933 10937 10940 10944 10948 10951 10955 10962 10967 10971
10917 10921 10924 10927 10929 10931 10931 10931 10932 10932 10930 10930 10928 10926 10925 10925 10926 10924 10924 10922 10919 10919 10917 10916 10915 10915 10914 10913 10912 10913 10913 10914 10916 10920 10926 10930 10934 10939 10942 10946 10951 10955 10960 10964
10915 10919 10921 10924 10925 10926 10926 10927 10926 10927 10926 10924 10921 10918 10916 10922 10916 10919 10919 10916 10913 10912 10912 10910 10909 10909 10909 10908 10908 10908 10908 10908 10910 10913 10917 10921 10925 10931 10936 10941 10944 10948 10953 10957
10913 10915 10918 10919 10920 10921 10921 10921 10920 10921 10920 10918 10914 10913 10909 10906 10908 10910 10911 10911 10907 10907 10904 10905 10902 10901 10901 10901 10902 10902 10902 10902 10903 10906 10909 10913 10917 10922 10928 10933 10938 10942 10947 10951
10909 10912 10913 10914 10914 10914 10915 10912 10912 10913 10911 10911 10908 10898 10902 10901 10899 10896 10900 10901 10899 10900 10897 10896 10895 10894 10891 10892 10894 10895 10896 10897 10897 10899 10902 10905 10910 10914 10920 10925 10930 10936 10940 10944
10905 10907 10908 10909 10908 10908 10909 10907 10906 10906 10904 10904 10900 10890 10880 10898 10896 10891 10892 10891 10888 10887 10886 10885 10885 10885 10886 10884 10885 10887 10888 10890 10891 10892 10894 10897 10902 10906 10910 10915 10921 10927 10932 10937
10899 10902 10902 10901 10900 10903 10902 10899 10897 10896 10896 10893 10890 10873 10866 10880 10882 10879 10886 10879 10879 10875 10875 10872 10873 10873 10875 10876 10876 10877 10879 10881 10883 10885 10887 10889 10892 10896 10900 10905 10912 10918 10925 10931
10892 10894 10895 10893 10891 10893 10892 10891 10888 10887 10885 10883 10879 10875 10850 10862 10867 10866 10872 10868 10856 10858 10859 10861 10860 10862 10863 10864 10866 10867 10868 10869 10872 10875 10878 10880 10883 10887 10891 10896 10903 10910 10915 10922
10886 10886 10887 10883 10882 10879 10879 10878 10877 10873 10869 10868 10863 10858 10846 10846 10850 10852 10857 10856 10845 10845 10843 10841 10844 10845 10848 10849 10851 10854 10855 10858 10860 10864 10867 10870 10873 10876 10882 10888 10894 10900 10906 10911
10878 10877 10877 10873 10870 10868 10864 10861 10863 10857 10853 10850 10846 10841 10840 10832 10826 10826 10832 10836 10837 10828 10822 10824 10826 10825 10826 10831 10834 10837 10841 10844 10847 10850 10854 10858 10863 10866 10873 10877 10883 10889 10897 10902
10867 10867 10865 10862 10858 10857 10852 10854 10847 10843 10832 10830 10829 10829 10826 10817 10809 10807 10804 10806 10811 10809 10803 10801 10801 10803 10802 10804 10812 10816 10822 10827 10833 10837 10841 10847 10853 10859 10865 10868 10874 10878 10885 10892
10857 10854 10852 10850 10844 10841 10839 10841 10837 10826 10816 10817 10817 10810 10805 10801 10794 10787 10776 10782 10785 10782 10776 10771 10773 10777 10780 10781 10788 10794 10803 10809 10815 10822 10828 10834 10843 10848 10854 10861 10866 10870 10875 10880
10845 10841 10837 10832 10829 10825 10817 10829 10822 10812 10804 10806 10803 10792 10787 10783 10778 10770 10762 10757 10757 10755 10744 10744 10745 10748 10753 10757 10763 10768 10778 10790 10798 10805 10812 10818 10834 10837 10844 10852 10858 10859 10863 10866
10829 10828 10820 10818 10813 10810 10808 10810 10802 10790 10786 10789 10781 10775 10767 10760 10755 10745 10737 10734 10729 10725 10716 10717 10715 10718 10722 10728 10737 10744 10751 10763 10776 10784 10793 10804 10816 10821 10822 10833 10856 10853 10855 10855
10810 10807 10808 10803 10798 10791 10798 10789 10781 10774 10768 10762 10756 10752 10746 10739 10727 10720 10709 10704 10701 10694 10686 10687 10687 10690 10694 10699 10708 10718 10725 10737 10751 10761 10772 10786 10797 10802 10804 10810 10833 10843 10845 10843
10801 10799 10793 10790 10781 10775 10778 10769 10762 10755 10747 10742 10734 10727 10719 10712 10701 10691 10682 10677 10673 10670 10665 10663 10662 10664 10669 10674 10683 10690 10697 10710 10726 10741 10752 10765 10771 10785 10789 10799 10800 10838 10828 10830
10787 10785 10780 10773 10762 10761 10755 10750 10745 10739 10730 10719 10706 10698 10691 10685 10674 10666 10660 10656 10654 10653 10652 10650 10649 10648 10651 10654 10661 10668 10675 10687 10705 10721 10731 10740 10751 10757 10764 10777 10794 10802 10808 10818
10776 10773 10765 10754 10745 10740 10731 10728 10723 10719 10709 10697 10686 10675 10666 10663 10654 10648 10643 10641 10639 10638 10638 10638 10639 10639 10639 10640 10645 10650 10655 10666 10684 10700 10711 10717 10729 10735 10746 10755 10766 10783 10794 10805
10756 10753 10749 10742 10736 10728 10715 10709 10701 10691 10683 10674 10662 10655 10649 10644 10638 10635 10631 10630 10629 10628 10628 10629 10630 10629 10629 10629 10631 10635 10640 10647 10663 10680 10690 10695 10705 10715 10731 10740 10752 10770 10782 10799
10741 10737 10731 10722 10713 10708 10699 10689 10678 10670 10658 10650 10643 10635 10634 10631 10628 10626 10624 10622 10621 10619 10618 10619 10620 10621 10620 10620 10619 10619 10624 10630 10639 10657 10669 10678 10686 10700 10717 10726 10739 10755 10773 10787